DateTime,F1_A11,F1_S11,BsB_S11,BsG_S11,BsR_S11,BbsB_S11,BbsG_S11,BbsR_S11,BaB_A11,BaG_A11,BaR_A11,T_S11,U_S11,P_S11,T1_A11
2016-06-06T00:00:00Z,0000380,20000600,,,,,,,,,,26.3,01.7,0670.9,34.5
2016-06-06T00:01:00Z,0000380,20000600,,,,,,,,,,26.3,01.7,0670.9,34.5
2016-06-06T00:02:00Z,0000380,20000600,,,,,,,,,,26.3,01.7,0670.9,34.5
2016-06-06T00:03:00Z,0000380,60000600,,,,,,,,,,26.4,01.7,0670.9,34.5
2016-06-06T00:04:00Z,0000380,40000600,0009.61,0006.52,0003.88,0001.59,0000.66,0000.46,0000.66,0000.44,0000.65,26.4,01.7,0671.7,34.5
2016-06-06T00:05:00Z,0000380,00000600,0010.03,0007.58,0004.54,0001.23,0000.69,0000.61,0000.44,0000.47,0000.38,26.4,01.6,0671.8,34.5
2016-06-06T00:06:00Z,0000380,00000600,0009.62,0006.94,0003.58,0000.55,0000.33,0000.09,0000.73,0000.57,0000.22,26.4,01.7,0671.8,34.5
2016-06-06T00:07:00Z,0000380,00000600,0009.00,0007.53,0004.27,0000.93,0000.53,0000.65,0000.40,0000.49,0000.29,26.4,01.8,0671.8,34.5
2016-06-06T00:08:00Z,0000380,00000600,0009.19,0007.38,0004.12,0000.79,0000.58,0000.72,0000.82,0000.65,0000.82,26.4,01.8,0671.8,34.5
2016-06-06T00:09:00Z,0000380,00000600,0009.48,0007.56,0003.56,0000.71,0000.74,0000.24,0000.45,0000.68,0000.42,26.4,01.9,0671.8,34.5
2016-06-06T00:10:00Z,0000380,00000600,0009.31,0007.95,0003.90,0000.79,0000.72,0000.20,0000.64,0000.38,0000.44,26.4,02.0,0671.8,34.5
2016-06-06T00:11:00Z,0000380,00000600,0009.19,0007.82,0003.84,0001.02,0000.55,0000.52,0000.50,0000.42,0000.15,26.4,02.0,0671.8,34.5
2016-06-06T00:12:00Z,0000380,00000600,0009.68,0007.82,0003.64,0001.12,0000.85,0000.54,0000.20,0000.16,0000.43,26.4,01.7,0671.8,34.5
2016-06-06T00:13:00Z,0000380,00000600,0009.05,0007.83,0003.85,0000.71,0000.58,0000.28,0000.63,0000.55,0000.24,26.4,01.6,0671.8,34.5
2016-06-06T00:14:00Z,0000380,00000600,0010.07,0007.16,0003.68,0001.13,0000.60,0000.47,0000.74,0000.73,0000.42,26.4,01.6,0671.8,34.5
2016-06-06T00:15:00Z,0000380,00000600,0009.42,0006.93,0003.83,0001.23,0000.74,0000.39,0000.25,-000.20,0000.14,26.4,01.8,0671.8,34.5
2016-06-06T00:16:00Z,0000380,00000600,0009.72,0006.84,0003.83,0000.85,0000.72,0000.16,0000.41,0000.38,0000.40,26.5,01.7,0671.9,34.5
2016-06-06T00:17:00Z,0000380,01000600,0010.33,0007.45,0004.02,0001.24,0000.80,0000.28,0000.38,0000.49,0000.50,26.5,01.5,0671.9,34.5
2016-06-06T00:18:00Z,0000380,00000600,0009.66,0007.83,0003.37,0000.17,0000.81,0000.14,0000.75,0000.54,0000.16,26.5,01.5,0671.9,34.5
2016-06-06T00:19:00Z,0000380,00000600,0009.26,0006.78,0003.85,0001.27,0000.83,0000.24,0000.67,0000.61,0000.72,26.6,01.7,0671.9,34.5
2016-06-06T00:20:00Z,0000380,00000600,0009.42,0007.34,0004.28,0000.46,0000.75,0000.55,0000.76,0000.80,0000.36,26.7,01.7,0671.9,34.5
2016-06-06T00:21:00Z,0000380,00000600,0008.26,0007.29,0003.94,0001.10,0000.69,0000.35,0000.58,0000.60,0000.48,26.7,01.7,0671.9,34.5
2016-06-06T00:22:00Z,0000380,00000600,0010.15,0006.96,0004.16,0000.58,0001.18,0000.46,0000.26,0000.34,0000.49,26.6,01.7,0671.9,34.5
2016-06-06T00:23:00Z,0000380,00000600,0009.88,0006.96,0003.48,0001.32,0000.56,-000.02,0000.75,0000.61,0000.27,26.6,01.7,0671.9,34.5
2016-06-06T00:24:00Z,0000380,00000600,0009.26,0007.42,0003.97,0000.46,0000.77,0000.11,0000.48,0000.47,0000.37,26.6,01.8,0671.9,34.5
2016-06-06T00:25:00Z,0000380,00000600,0008.91,0007.17,0004.03,0000.69,0000.88,0000.58,0000.77,0000.40,0000.35,26.6,01.8,0671.9,34.5
2016-06-06T00:26:00Z,0000380,00000600,0010.36,0007.36,0003.91,0000.28,0000.94,0000.41,0000.40,0000.46,0000.11,26.6,01.8,0672.0,34.5
2016-06-06T00:27:00Z,0000380,00000600,0010.20,0007.34,0003.46,0000.91,0000.56,0000.46,0000.49,0000.68,0000.80,26.5,01.7,0672.0,34.5
2016-06-06T00:28:00Z,0000380,00000600,0008.84,0007.21,0003.48,0001.02,0000.66,0000.57,0000.56,0000.15,0000.05,26.5,01.7,0672.0,34.5
2016-06-06T00:29:00Z,0000380,00000600,0007.70,0007.15,0003.57,0000.20,0000.44,0000.30,0000.61,0000.33,0000.68,26.5,01.8,0672.0,34.5
2016-06-06T00:30:00Z,0000380,00000600,0010.00,0007.22,0003.35,0000.79,0000.81,0000.22,0000.38,0000.34,0000.08,26.5,01.7,0672.0,34.4
2016-06-06T00:31:00Z,0000380,00000600,0008.95,0006.74,0003.71,0001.01,0000.36,0000.05,0000.49,0000.87,0000.60,26.5,01.7,0672.0,34.4
2016-06-06T00:32:00Z,0000380,00000600,0009.19,0007.18,0003.97,0000.98,0000.52,0000.63,0000.64,0000.32,0000.29,26.5,01.6,0672.0,34.4
2016-06-06T00:33:00Z,0000380,00000600,0009.52,0006.59,0004.01,0000.64,0000.06,0000.28,0000.27,0000.32,0000.46,26.5,01.7,0672.0,34.4
2016-06-06T00:34:00Z,0000380,00000600,0008.94,0007.03,0004.06,0000.57,0000.64,0000.54,0000.43,0000.55,0000.57,26.6,01.6,0672.0,34.4
2016-06-06T00:35:00Z,0000380,00000600,0007.99,0007.28,0003.75,0000.50,0000.19,0000.61,0000.67,0000.56,0000.31,26.5,01.7,0672.0,34.4
2016-06-06T00:36:00Z,0000380,00000600,0009.44,0007.07,0003.73,0001.05,0000.70,0000.60,0000.63,0000.67,0000.44,26.5,01.6,0672.0,34.4
2016-06-06T00:37:00Z,0000380,00000600,0009.97,0006.96,0003.41,0001.04,0000.69,0000.36,0000.49,0000.38,0000.54,26.5,01.7,0672.0,34.4
2016-06-06T00:38:00Z,0000380,00000600,0009.42,0007.09,0003.92,0001.07,0000.88,0000.63,0000.49,0000.52,0000.08,26.5,01.7,0672.0,34.4
2016-06-06T00:39:00Z,0000380,00000600,0010.12,0007.87,0003.74,0000.96,0001.17,0000.13,0000.84,0000.53,0000.38,26.5,01.7,0672.0,34.4
2016-06-06T00:40:00Z,0000380,00000600,0009.60,0006.57,0003.67,0001.01,0001.13,0000.58,0000.33,0000.41,0000.51,26.5,01.7,0672.1,34.4
2016-06-06T00:41:00Z,0000380,00000600,0009.65,0007.33,0003.36,0000.47,0000.67,0000.66,0000.60,0000.65,0000.43,26.5,01.6,0672.1,34.4
2016-06-06T00:42:00Z,0000380,00000600,0009.51,0006.68,0003.70,0001.15,0000.58,0000.49,0000.60,0000.44,0000.42,26.5,01.7,0672.0,34.4
2016-06-06T00:43:00Z,0000380,00000600,0010.14,0006.97,0003.98,0001.04,0000.96,0000.72,0000.48,0000.46,0000.40,26.5,01.7,0672.0,34.4
2016-06-06T00:44:00Z,0000380,00000600,0010.49,0006.56,0003.65,0000.47,0000.80,0000.58,0000.45,0000.04,-000.00,26.5,01.7,0672.1,34.4
2016-06-06T00:45:00Z,0000380,00000600,0009.10,0006.67,0003.90,0000.87,0000.70,0000.31,0000.47,0000.49,0000.52,26.5,01.6,0672.1,34.5
2016-06-06T00:46:00Z,0000380,00000600,0009.77,0006.74,0003.90,0000.80,0000.38,0000.33,0000.46,0000.60,0000.31,26.5,01.7,0672.1,34.5
2016-06-06T00:47:00Z,0000380,00000600,0009.11,0006.72,0003.96,0001.04,0000.80,0000.33,0000.80,0000.59,0000.59,26.5,01.7,0672.1,34.5
2016-06-06T00:48:00Z,0000380,00000600,0010.38,0007.05,0004.05,0001.27,0000.39,0000.50,0000.26,0000.28,0000.20,26.5,01.7,0672.1,34.5
2016-06-06T00:49:00Z,0000380,00000600,0009.60,0007.14,0004.14,0000.71,0000.53,0000.43,0000.63,0000.69,0000.64,26.6,01.7,0672.1,34.5
2016-06-06T00:50:00Z,0000380,00000600,0008.31,0006.81,0003.86,0000.87,0000.66,0000.38,0000.68,0000.56,0000.16,26.6,01.7,0672.1,34.5
2016-06-06T00:51:00Z,0000380,00000600,0009.73,0006.88,0003.86,0000.55,0000.86,0000.35,0000.40,0000.51,0000.38,26.6,01.6,0672.1,34.5
2016-06-06T00:52:00Z,0000380,00000600,0009.68,0007.33,0003.44,0000.87,0000.89,0000.28,0000.71,0000.45,0000.39,26.5,01.7,0672.1,34.5
2016-06-06T00:53:00Z,0000380,00000600,0010.07,0007.06,0003.57,0000.33,0000.31,0000.96,0000.50,0000.39,0000.39,26.5,01.7,0672.1,34.5
2016-06-06T00:54:00Z,0000380,00000600,0009.34,0006.98,0003.90,0000.83,0000.45,0000.58,0000.46,0000.33,0000.59,26.5,01.6,0672.1,34.5
2016-06-06T00:55:00Z,0000380,00000600,0009.73,0006.02,0003.80,0000.30,0000.42,0000.35,0000.49,0000.62,0000.25,26.5,01.6,0672.1,34.5
2016-06-06T00:56:00Z,0000380,00000600,0009.68,0008.09,0003.86,0001.64,0000.63,0000.76,0000.53,0000.61,0000.47,26.5,01.6,0672.1,34.5
2016-06-06T00:57:00Z,0000380,40000600,,,,,,,,,,,,0672.1,34.5
2016-06-06T00:58:00Z,0000380,60000600,,,,,,,,,,26.3,01.7,0671.2,34.5
2016-06-06T00:59:00Z,0000380,20000600,,,,,,,,,,26.3,01.7,0671.2,34.5
2016-06-06T01:00:00Z,0000380,20000600,,,,,,,,,,26.3,01.7,0671.2,34.4
2016-06-06T01:01:00Z,0000380,20000600,,,,,,,,,,26.3,01.7,0671.2,34.4
2016-06-06T01:02:00Z,0000380,20000600,,,,,,,,,,26.3,01.7,0671.2,34.4
2016-06-06T01:03:00Z,0000380,60000600,,,,,,,,,,26.4,01.7,0671.2,34.4
2016-06-06T01:04:00Z,0000380,40000600,0009.91,0006.94,0004.06,0001.02,0000.38,0000.58,0000.51,0000.53,0000.38,26.5,02.0,0672.0,34.4
2016-06-06T01:05:00Z,0000380,00000600,0010.21,0006.61,0004.45,0000.64,0000.56,0000.91,0000.78,0000.71,0000.77,26.5,01.8,0672.1,34.4
2016-06-06T01:06:00Z,0000380,00000600,0009.42,0006.47,0004.29,0001.01,0000.42,0000.77,0000.43,0000.40,0000.17,26.6,01.8,0672.1,34.4
2016-06-06T01:07:00Z,0000380,00000600,0009.31,0006.49,0004.61,0001.26,0000.70,0000.76,0000.58,0000.39,0000.51,26.5,01.8,0672.1,34.4
2016-06-06T01:08:00Z,0000380,00000600,0010.71,0006.33,0003.99,0001.02,0000.58,0000.49,0000.52,0000.59,0000.57,26.6,01.7,0672.1,34.4
2016-06-06T01:09:00Z,0000380,00000600,0009.59,0006.56,0003.73,0000.52,0000.91,0000.54,0000.45,0000.39,0000.28,26.5,01.7,0672.1,34.4
2016-06-06T01:10:00Z,0000380,00000600,0009.58,0007.60,0004.27,0000.30,0000.45,0000.82,0000.55,0000.54,0000.09,26.5,01.7,0672.2,34.4
2016-06-06T01:11:00Z,0000380,00000600,0009.96,0006.44,0003.78,0000.47,0000.49,0000.63,0000.67,0000.45,0000.70,26.5,01.7,0672.1,34.4
2016-06-06T01:12:00Z,0000380,00000600,0010.78,0007.21,0004.44,0000.69,0000.55,0000.20,0000.64,0000.69,0000.18,26.5,01.8,0672.1,34.4
2016-06-06T01:13:00Z,0000380,00000600,0010.22,0007.78,0004.25,0000.42,0000.88,0000.44,0000.31,0000.33,0000.56,26.5,01.9,0672.1,34.4
2016-06-06T01:14:00Z,0000380,00000600,0009.86,0006.52,0003.78,0000.72,0000.88,0000.52,0000.75,0000.59,0000.18,26.5,01.9,0672.1,34.4
2016-06-06T01:15:00Z,0000380,00000600,0009.58,0006.85,0004.24,0000.71,0000.81,0000.85,0000.39,0000.47,0000.55,26.5,01.8,0672.1,34.4
2016-06-06T01:16:00Z,0000380,00000600,0009.37,0006.91,0003.94,0001.01,0000.53,0000.80,0000.59,0000.41,0000.53,26.4,01.8,0672.1,34.4
2016-06-06T01:17:00Z,0000380,00000600,0009.67,0006.90,0003.85,0000.11,0000.88,0000.93,0000.40,0000.48,0000.30,26.4,01.8,0672.1,34.4
2016-06-06T01:18:00Z,0000380,00000600,0009.18,0006.96,0003.98,0000.52,0001.16,0000.50,0000.60,0000.48,0000.15,26.4,01.8,0672.1,34.4
2016-06-06T01:19:00Z,0000380,00000600,0009.44,0006.89,0004.25,0001.08,0000.56,0000.65,0000.27,0000.31,0000.48,26.4,01.8,0672.2,34.4
2016-06-06T01:20:00Z,0000380,00000600,0009.30,0006.76,0003.78,0000.42,0000.45,0000.42,0000.82,0000.44,0000.21,26.4,01.7,0672.2,34.4
2016-06-06T01:21:00Z,0000380,00000600,0009.98,0007.51,0003.88,0000.71,0000.80,0000.69,0000.23,0000.28,0000.54,26.4,01.5,0672.2,34.4
2016-06-06T01:22:00Z,0000380,00000600,0009.13,0006.77,0004.25,0000.71,0000.58,0000.65,0000.63,0000.72,0000.47,26.4,01.6,0672.2,34.4
2016-06-06T01:23:00Z,0000380,00000600,0009.94,0006.77,0004.21,0000.83,0000.88,0000.49,0000.59,0000.56,0000.31,26.4,01.7,0672.2,34.4
2016-06-06T01:24:00Z,0000380,00000600,0010.08,0006.50,0004.38,0000.88,0000.49,0000.69,0000.58,0000.62,0000.66,26.4,01.7,0672.2,34.4
2016-06-06T01:25:00Z,0000380,00000600,0010.58,0006.59,0004.18,0000.49,0000.53,0000.52,0000.71,0000.53,0000.35,26.4,01.8,0672.2,34.4
2016-06-06T01:26:00Z,0000388,00000608,0010.70,0007.57,0004.25,0000.46,0000.44,0000.61,0000.46,0000.47,0000.16,26.4,01.7,0672.2,34.4
2016-06-06T01:27:00Z,0000388,00000608,0009.37,0006.86,0003.89,0001.49,0000.56,0000.90,0000.23,0000.17,0000.37,26.4,01.6,0672.2,34.4
2016-06-06T01:28:00Z,0000388,00000608,0010.45,0006.90,0004.37,0000.96,0000.75,0000.57,0000.66,0000.82,0000.23,26.4,01.7,0672.2,34.4
2016-06-06T01:29:00Z,0000388,00000608,0009.63,0007.10,0004.03,0000.86,0000.72,0000.60,0000.51,0000.10,0000.53,26.4,01.8,0672.2,34.4
2016-06-06T01:30:00Z,0000388,00000608,0009.23,0007.24,0004.13,0000.52,0000.36,0000.88,0000.30,0000.25,0000.30,26.4,01.5,0672.2,34.5
2016-06-06T01:31:00Z,0000388,01000608,0010.19,0006.68,0004.09,0000.64,0000.17,0000.63,0000.44,0000.52,0000.15,26.5,01.5,0672.3,34.5
2016-06-06T01:32:00Z,0000388,00000608,0010.03,0006.95,0004.23,0000.57,0000.74,0000.96,0000.69,0000.49,0000.38,26.5,01.4,0672.3,34.5
2016-06-06T01:33:00Z,0000388,01000608,0010.38,0006.94,0004.54,0000.52,0000.33,0000.52,0000.43,0000.23,0000.51,26.5,01.3,0672.3,34.5
2016-06-06T01:34:00Z,0000388,01000608,0009.41,0006.73,0003.74,0000.86,0001.06,0000.49,0000.93,0001.02,0000.69,26.5,01.5,0672.2,34.5
2016-06-06T01:35:00Z,0000388,00000608,0009.35,0006.72,0004.47,0000.63,0000.74,0000.61,0000.35,0000.41,0000.44,26.5,01.8,0672.2,34.5
2016-06-06T01:36:00Z,0000388,00000608,0009.60,0006.50,0004.08,0000.22,0001.00,0001.23,0000.62,0000.55,0000.56,26.5,01.6,0672.2,34.5
2016-06-06T01:37:00Z,0000388,00000608,0010.70,0007.27,0003.56,0001.43,0000.53,0000.52,0000.87,0000.76,0000.32,26.5,01.7,0672.2,34.5
2016-06-06T01:38:00Z,0000388,00000608,0009.83,0007.54,0004.40,0000.83,0000.45,0000.60,0000.61,0000.55,0000.26,26.5,01.7,0672.3,34.5
2016-06-06T01:39:00Z,0000388,00000608,0010.50,0007.20,0004.36,0000.72,0001.22,0000.82,0000.53,0000.36,0000.47,26.5,01.8,0672.3,34.5
2016-06-06T01:40:00Z,0000388,00000608,0010.50,0007.07,0004.10,0000.66,0000.59,0000.60,0000.47,0000.60,0000.59,26.5,01.8,0672.3,34.5
2016-06-06T01:41:00Z,0000388,00000608,0009.59,0005.93,0004.54,0000.88,0000.58,0000.79,0000.63,0000.52,0000.29,26.5,01.8,0672.3,34.5
2016-06-06T01:42:00Z,0000388,00000608,0009.45,0007.09,0004.83,0000.90,0000.83,0001.05,0000.51,0000.56,0000.57,26.5,01.8,0672.3,34.5
2016-06-06T01:43:00Z,0000388,00000608,0010.10,0006.91,0004.41,0000.85,0001.17,0000.83,0000.70,0000.50,0000.33,26.5,01.8,0672.3,34.5
2016-06-06T01:44:00Z,0000388,00000608,0010.24,0007.22,0004.27,0000.58,0000.30,0000.22,0000.46,0000.52,0000.34,26.5,01.7,0672.3,34.5
2016-06-06T01:45:00Z,0000388,00000608,0009.67,0007.63,0003.89,0001.12,0000.19,0000.60,0000.43,0000.30,0000.25,26.5,01.8,0672.3,34.5
2016-06-06T01:46:00Z,0000388,01000608,0010.61,0007.05,0004.31,0000.38,0000.85,0000.54,0000.35,0000.40,0000.31,26.5,01.5,0672.4,34.5
2016-06-06T01:47:00Z,0000388,00000608,0010.11,0006.70,0004.20,0000.88,0000.77,0000.85,0000.51,0000.21,0000.22,26.4,01.5,0672.3,34.5
2016-06-06T01:48:00Z,0000388,00000608,0010.06,0006.73,0004.26,0000.39,0000.70,0000.87,0000.92,0000.81,0000.78,26.4,01.5,0672.4,34.5
2016-06-06T01:49:00Z,0000388,00000608,0009.73,0006.33,0004.24,0000.91,0000.75,0000.42,0000.21,0000.40,0000.21,26.5,01.6,0672.4,34.5
2016-06-06T01:50:00Z,0000388,00000608,0009.58,0007.25,0004.43,0000.80,0000.80,0000.76,0000.73,0000.64,0000.61,26.5,01.6,0672.3,34.5
2016-06-06T01:51:00Z,0000388,01000608,0010.33,0006.77,0004.47,0000.72,0000.08,0000.83,0000.64,0000.38,0000.28,26.5,01.6,0672.3,34.5
2016-06-06T01:52:00Z,0000388,00000608,0009.83,0006.01,0003.91,0000.83,0000.34,0000.30,0000.52,0000.66,0000.51,26.5,01.7,0672.3,34.5
2016-06-06T01:53:00Z,0000388,00000608,0008.69,0006.86,0004.48,0001.10,0000.80,0000.66,0000.61,0000.35,0000.47,26.5,01.6,0672.3,34.5
2016-06-06T01:54:00Z,0000388,00000608,0010.43,0006.18,0004.17,0000.52,0000.66,0000.69,0000.39,0000.68,0000.00,26.5,01.9,0672.4,34.5
2016-06-06T01:55:00Z,0000388,00000608,0010.24,0006.56,0004.29,0000.85,0000.80,0000.46,0000.31,0000.31,0000.54,26.5,01.8,0672.4,34.5
2016-06-06T01:56:00Z,0000388,00000608,0009.09,0006.70,0003.85,0000.86,0000.27,0000.28,0000.69,0000.45,0000.52,26.5,01.7,0672.4,34.5
2016-06-06T01:57:00Z,0000388,40000608,,,,,,,,,,,,0672.2,34.5
2016-06-06T01:58:00Z,0000388,60000608,,,,,,,,,,26.3,01.8,0671.5,34.5
2016-06-06T01:59:00Z,0000388,20000608,,,,,,,,,,26.3,01.7,0671.5,34.5
2016-06-06T02:00:00Z,0000388,20000608,,,,,,,,,,26.3,01.7,0671.5,34.5
2016-06-06T02:01:00Z,0000388,20000608,,,,,,,,,,26.3,01.7,0671.5,34.5
2016-06-06T02:02:00Z,0000388,20000608,,,,,,,,,,26.3,01.7,0671.5,34.5
2016-06-06T02:03:00Z,0000388,60000608,,,,,,,,,,26.3,01.7,0671.5,34.5
2016-06-06T02:04:00Z,0000388,40000608,0009.72,0006.46,0004.58,0000.88,0000.72,0000.52,0000.12,0000.59,0000.03,26.5,01.8,0672.4,34.5
2016-06-06T02:05:00Z,0000388,00000608,0009.94,0006.78,0004.63,0000.69,0000.72,0000.50,0000.95,0000.33,0000.63,26.5,01.5,0672.4,34.5
2016-06-06T02:06:00Z,0000388,01000608,0009.13,0007.72,0004.58,0000.82,0000.55,0000.39,0000.44,0000.58,0000.25,26.5,01.4,0672.4,34.5
2016-06-06T02:07:00Z,0000388,00000608,0010.31,0006.73,0004.11,0001.19,0000.80,0000.11,0000.44,0000.48,0000.29,26.5,01.5,0672.5,34.5
2016-06-06T02:08:00Z,0000388,00000608,0009.50,0007.16,0004.77,0001.19,0000.77,0000.82,0000.73,0000.55,0000.68,26.5,01.5,0672.4,34.5
2016-06-06T02:09:00Z,0000388,00000608,0008.08,0006.51,0003.84,0000.33,0000.64,0000.55,0000.40,0000.54,0000.42,26.5,01.7,0672.5,34.5
2016-06-06T02:10:00Z,0000388,00000608,0009.62,0006.96,0004.17,0000.13,0000.63,0000.30,0000.58,0000.55,0000.49,26.5,01.6,0672.5,34.5
2016-06-06T02:11:00Z,0000388,00000608,0010.98,0007.25,0004.62,0001.24,0000.81,0000.58,0000.76,0000.35,0000.34,26.5,01.6,0672.5,34.5
2016-06-06T02:12:00Z,0000388,00000608,0008.63,0007.42,0004.82,0000.94,0000.78,0000.52,0000.25,0000.39,0000.25,26.5,01.6,0672.5,34.5
2016-06-06T02:13:00Z,0000388,00000608,0009.92,0006.94,0004.44,0000.69,0000.49,0000.57,0000.53,0000.60,0000.14,26.5,01.5,0672.5,34.5
2016-06-06T02:14:00Z,0000388,00000608,0009.87,0006.88,0004.13,0000.69,0000.70,0000.53,0000.38,0000.25,0000.40,26.4,01.4,0672.5,34.5
2016-06-06T02:15:00Z,0000388,00000608,0009.65,0007.13,0003.94,0000.64,0000.74,0000.28,0000.66,0000.47,0000.39,26.4,01.4,0672.5,34.5
2016-06-06T02:16:00Z,0000388,00000608,0008.04,0007.10,0004.78,0000.90,0001.17,0000.53,0000.46,0000.38,0000.37,26.5,01.6,0672.5,34.5
2016-06-06T02:17:00Z,0000388,00000608,0009.17,0007.55,0004.18,0000.79,0001.14,0000.33,0000.55,0000.53,0000.68,26.5,01.5,0672.5,34.5
2016-06-06T02:18:00Z,0000388,00000608,0009.53,0007.56,0004.26,0000.66,0000.83,0000.42,0000.57,0000.44,-000.08,26.5,01.5,0672.5,34.5
2016-06-06T02:19:00Z,0000388,00000608,0009.57,0007.10,0004.30,0001.21,0001.16,0000.61,0000.59,0000.55,0000.74,26.5,01.5,0672.5,34.5
2016-06-06T02:20:00Z,0000388,00000608,0009.10,0007.28,0004.01,0000.14,0000.92,0000.28,0000.63,0000.65,0000.69,26.5,01.6,0672.5,34.5
2016-06-06T02:21:00Z,0000388,00000608,0009.35,0007.45,0004.18,0000.77,0000.95,0000.25,0000.67,0000.51,-000.06,26.5,01.7,0672.5,34.5
2016-06-06T02:22:00Z,0000388,00000608,0008.97,0007.28,0004.03,0000.46,0000.58,0000.72,0000.38,0000.38,0000.52,26.5,01.7,0672.5,34.5
2016-06-06T02:23:00Z,0000388,00000608,0010.20,0006.93,0004.36,0000.96,0000.95,0000.46,0000.61,0000.42,0000.30,26.5,01.7,0672.5,34.5
2016-06-06T02:24:00Z,0000388,00000608,0009.07,0006.92,0003.89,0000.88,0000.91,0000.83,0000.50,0000.66,0000.62,26.5,01.6,0672.5,34.5
2016-06-06T02:25:00Z,0000388,00000608,0009.49,0006.31,0004.71,0000.58,0000.86,0000.38,0000.55,0000.42,0000.29,26.5,01.5,0672.5,34.5
2016-06-06T02:26:00Z,0000388,00000608,0009.07,0006.68,0004.44,0000.83,0001.13,0000.55,0000.73,0000.59,0000.46,26.5,01.6,0672.5,34.5
2016-06-06T02:27:00Z,0000388,00000608,0009.51,0006.91,0004.30,0000.86,0001.19,0000.74,0000.42,0000.38,0000.28,26.5,01.6,0672.5,34.5
2016-06-06T02:28:00Z,0000388,00000608,0009.63,0006.95,0004.33,0000.96,0000.69,0000.46,0000.46,0000.34,0000.13,26.4,01.6,0672.5,34.5
2016-06-06T02:29:00Z,0000388,00000608,0009.64,0006.33,0003.58,0001.38,0001.08,0000.57,0000.37,0000.35,0000.39,26.4,01.6,0672.5,34.5
2016-06-06T02:30:00Z,0000388,00000608,0009.84,0007.36,0003.91,0000.88,0000.92,0000.22,0000.34,0000.32,0000.18,26.4,01.5,0672.5,34.4
2016-06-06T02:31:00Z,0000388,00000608,0008.95,0006.85,0004.32,0000.93,0001.03,0000.41,0000.74,0000.63,0000.58,26.5,01.5,0672.5,34.4
2016-06-06T02:32:00Z,0000388,00000608,0010.25,0007.03,0004.38,0000.44,0000.67,0000.72,0000.72,0000.63,0000.54,26.5,01.5,0672.5,34.4
2016-06-06T02:33:00Z,0000388,00000608,0010.44,0006.87,0004.67,0001.23,0001.31,0000.31,0000.30,0000.36,0000.31,26.5,01.5,0672.5,34.4
2016-06-06T02:34:00Z,0000388,00000608,0009.09,0007.26,0004.39,0000.61,0000.78,0000.47,0000.87,0000.62,0000.52,26.5,01.5,0672.5,34.4
2016-06-06T02:35:00Z,0000388,00000608,0009.49,0006.89,0004.48,0001.10,0000.81,0000.41,0000.51,0000.62,0000.47,26.5,01.6,0672.5,34.4
2016-06-06T02:36:00Z,0000388,00000608,0009.09,0007.24,0004.34,0000.75,0000.61,0000.60,0000.75,0000.58,0000.49,26.5,01.5,0672.6,34.4
2016-06-06T02:37:00Z,0000388,00000608,0010.15,0007.57,0004.12,0001.27,0000.69,0001.02,0000.29,0000.31,-000.04,26.5,01.5,0672.6,34.4
2016-06-06T02:38:00Z,0000388,01000608,0009.74,0006.87,0004.09,0001.04,0000.78,0000.57,0000.58,0000.64,0000.59,26.5,01.5,0672.5,34.4
2016-06-06T02:39:00Z,0000388,00000608,0009.49,0006.89,0004.09,0000.58,0000.85,0000.88,0000.53,0000.36,0000.45,26.5,01.6,0672.5,34.4
2016-06-06T02:40:00Z,0000388,00000608,0009.88,0007.31,0004.78,0001.18,0000.72,0000.57,0000.54,0000.62,0000.43,26.5,01.6,0672.6,34.4
2016-06-06T02:41:00Z,0000388,01000608,0009.48,0007.16,0003.90,0000.42,0000.75,0000.49,0000.62,0000.40,0000.32,26.5,01.6,0672.6,34.4
2016-06-06T02:42:00Z,0000388,00000608,0009.05,0007.02,0004.12,0001.27,0001.00,0000.30,0000.38,0000.50,0000.56,26.5,01.7,0672.6,34.4
2016-06-06T02:43:00Z,0000388,00000608,0009.92,0007.70,0004.05,0001.04,0000.88,0000.49,0000.73,0000.53,0000.23,26.5,01.5,0672.6,34.4
2016-06-06T02:44:00Z,0000388,00000608,0010.21,0007.44,0004.47,0001.04,0000.52,0000.96,0000.30,0000.14,0000.40,26.5,01.6,0672.6,34.4
2016-06-06T02:45:00Z,0000388,00000608,0009.71,0007.41,0004.32,0000.64,0000.89,0000.36,0000.28,0000.35,0000.21,26.5,01.5,0672.6,34.5
2016-06-06T02:46:00Z,0000388,01000608,0009.48,0007.31,0004.27,0001.23,0001.27,0000.55,0000.61,0000.61,0000.64,26.5,01.5,0672.6,34.5
2016-06-06T02:47:00Z,0000388,00000608,0009.99,0007.08,0004.56,0000.86,0000.69,0000.65,0000.76,0000.68,0000.28,26.5,01.5,0672.6,34.5
2016-06-06T02:48:00Z,0000388,00000608,0009.13,0007.51,0004.78,0000.66,0000.91,0000.20,0000.45,0000.35,0000.16,26.5,01.6,0672.6,34.5
2016-06-06T02:49:00Z,0000388,00000608,0010.16,0007.97,0003.61,0000.17,0000.59,0000.46,0000.66,0000.49,0000.79,26.5,01.5,0672.6,34.5
2016-06-06T02:50:00Z,0000388,00000608,0009.48,0007.29,0004.27,0001.04,0000.83,0000.68,0000.61,0000.59,0000.41,26.5,01.5,0672.6,34.5
2016-06-06T02:51:00Z,0000388,00000608,0010.24,0007.24,0004.08,0001.16,0001.05,0000.80,0000.34,0000.46,0000.23,26.5,01.6,0672.6,34.5
2016-06-06T02:52:00Z,0000388,00000608,0011.17,0007.39,0004.76,0000.88,0000.44,0000.90,0000.39,0000.45,0000.42,26.5,01.6,0672.6,34.5
2016-06-06T02:53:00Z,0000388,00000608,0009.48,0007.53,0004.27,0000.74,0001.41,0000.50,0000.79,0000.33,0000.10,26.5,01.5,0672.6,34.5
2016-06-06T02:54:00Z,0000388,00000608,0008.80,0006.68,0003.94,0000.61,0000.74,0000.52,0000.41,0000.49,0000.16,26.5,01.6,0672.6,34.5
2016-06-06T02:55:00Z,0000388,00000608,0009.51,0006.95,0004.79,0000.50,0000.67,0000.61,0000.60,0000.59,0000.81,26.5,01.6,0672.6,34.5
2016-06-06T02:56:00Z,0000388,00000608,0009.47,0007.22,0004.38,0000.61,0000.75,0000.55,0000.64,0000.49,0000.24,26.5,01.6,0672.6,34.5
2016-06-06T02:57:00Z,0000388,40000608,,,,,,,,,,,,0672.8,34.5
2016-06-06T02:58:00Z,0000388,60000608,,,,,,,,,,26.3,01.5,0671.8,34.5
2016-06-06T02:59:00Z,0000388,20000608,,,,,,,,,,26.3,01.5,0671.8,34.5
2016-06-06T03:00:00Z,0000388,20000608,,,,,,,,,,26.3,01.5,0671.8,34.4
2016-06-06T03:01:00Z,0000388,20000608,,,,,,,,,,26.3,01.5,0671.8,34.4
2016-06-06T03:02:00Z,0000388,20000608,,,,,,,,,,26.3,01.5,0671.8,34.4
2016-06-06T03:03:00Z,0000388,60000608,,,,,,,,,,26.3,01.5,0671.8,34.4
2016-06-06T03:04:00Z,0000388,40000608,0009.94,0008.24,0004.42,0000.90,0000.74,0000.85,0000.73,0000.98,0000.50,26.5,01.5,0672.6,34.4
2016-06-06T03:05:00Z,0000388,00000608,0010.32,0008.02,0004.42,0000.55,0000.61,0000.79,0000.49,0000.33,0000.37,26.5,01.5,0672.6,34.4
2016-06-06T03:06:00Z,0000388,00000608,0010.87,0007.82,0003.90,0000.57,0000.83,0000.42,0000.70,0000.56,0000.58,26.5,01.5,0672.6,34.4
2016-06-06T03:07:00Z,0000388,00000608,0010.22,0007.48,0004.16,0000.08,0000.78,0000.39,0000.70,0000.74,0000.19,26.5,01.5,0672.6,34.4
2016-06-06T03:08:00Z,0000388,00000608,0010.16,0007.47,0003.42,0001.04,0000.99,0000.50,0000.17,0000.33,0000.16,26.5,01.5,0672.6,34.4
2016-06-06T03:09:00Z,0000388,00000608,0010.02,0007.73,0004.57,0000.53,0000.67,0000.82,0000.59,0000.51,0000.51,26.5,01.5,0672.6,34.4
2016-06-06T03:10:00Z,0000388,00000608,0009.92,0007.06,0004.40,0000.75,0000.78,0000.57,0000.55,0000.40,0000.79,26.5,01.5,0672.6,34.4
2016-06-06T03:11:00Z,0000388,00000608,0010.17,0008.05,0003.88,0001.02,0000.49,0000.44,0000.68,0000.43,0000.14,26.5,01.5,0672.6,34.4
2016-06-06T03:12:00Z,0000388,00000608,0009.69,0007.19,0004.38,0000.71,0000.63,0000.50,0000.53,0000.39,0000.29,26.4,01.6,0672.6,34.4